Location: Oshawa
(43.9000°N, 78.8670°W)
Time: 14:51:19
(UTC-04:00)

Iridium 98 - Visible Passes

Search period start: 24 June 2018 00:00
Search period end: 04 July 2018 00:00
Orbit: 776 x 779 km, 86.4° (Epoch: 24 June)

Date Brightness Start Highest point End Pass type
(mag) Time Alt. Az. Time Alt. Az. Time Alt. Az.
24 Jun 5.5 22:11:19 10° S 22:16:32 82° E 22:21:46 10° N visible
24 Jun 8.2 23:55:38 10° W 23:57:57 13° WNW 00:00:16 10° NW visible
25 Jun 6.0 21:38:09 10° SSE 21:43:05 45° E 21:48:03 10° NNE visible
25 Jun 7.7 23:19:58 10° SW 23:24:02 23° WNW 23:28:07 10° NNW visible
26 Jun 6.8 22:45:24 10° SSW 22:50:15 39° W 22:55:10 10° NNW visible
27 Jun 5.8 22:11:26 10° S 22:16:38 71° W 22:21:51 10° N visible
28 Jun 5.6 21:37:58 10° S 21:43:06 65° E 21:48:17 10° N visible
28 Jun 8.1 23:21:08 10° WSW 23:24:20 16° WNW 23:27:33 10° NW visible
29 Jun 7.4 22:46:02 10° SW 22:50:29 28° WNW 22:54:57 10° NNW visible
30 Jun 6.5 22:11:43 10° SSW 22:16:46 49° W 22:21:50 10° N visible
01 Jul 5.6 21:37:57 10° S 21:43:10 89° W 21:48:25 10° N visible
01 Jul 8.4 23:23:06 10° W 23:24:41 11° WNW 23:26:16 10° NW visible
02 Jul 8.0 22:46:56 10° WSW 22:50:44 20° WNW 22:54:34 10° NNW visible
03 Jul 7.1 22:12:12 10° SW 22:16:56 35° W 22:21:43 10° NNW visible
